ASTRA 1F

Last updated on June 19, 2019, 3:33 a.m. UTC

1 23842U 96021A   19169.10542098  .00000132  00000-0  00000+0 0  9997
2 23842   0.0482 319.1433 0005147 133.0326 256.1102  1.00271943 84707
UTC
Height (km)
Latitude
Longitude
Inclination
Orbital Period
UTC large
Height (km)
Speed (km/s)
/
Latitude / Longitude
Inclination (degrees)
Orbital Period (minutes)
Azimuth
Elevation
Range (km)
Doppler Factor
iOS Compass Heading
iOS Angle

Next 30 passes for location: Hong Kong

Rise time Rise Azimuth (degrees) Set time Set Azimuth (degrees) Duration Max altitude (degrees)

No matching passes for this satellites